Flag for Germany Weather past 2 weeks in Saalfeld/Saale, Thuringia, Germany

Now
61 °F

Broken clouds.


Feels Like: 61 °F
Forecast: 46 / 56 °F
Wind: 2 mph from North

Location: Erfurt-Bindersleben

Current Time: May 25, 2015 at 12:16:14 PM

Latest Report: May 25, 2015 at 11:50 AM


Visibility: N/A

Pressure: 29.95 "Hg

Humidity: 63%

Dew point: 48 °F

Location of Saalfeld/SaaleLocation

Historic Weather in Saalfeld/Saale — Graph

°F

Saalfeld/Saale temperature yesterday

Maximum temperature yesterday: 66 °F (at 4:20 PM)
Minimum temperature yesterday: 52 °F (at 3:20 AM)
Average temperature yesterday: 58 °F

Past Weeks' High & Low Weather Summary

 TemperatureHumidityPressure
High81 °F (May 12, 2:50 PM)100% (May 21, 6:20 AM)30.36 "Hg (May 21, 6:20 AM)
Low36 °F (May 22, 2:20 AM)27% (May 19, 2:50 PM)29.65 "Hg (May 19, 1:20 AM)
Average55 °F61%30.07 "Hg
* Reported May 10 11:20 AM — May 25 11:20 AM, Saalfeld/Saale, Weather by CustomWeather, © 2015

Note: Actual official high and low records may vary slightly from our data, if they occured in-between our weather recording intervals... More about our weather records

Advertising

Saalfeld/Saale weather history for previous 24 hours

 ConditionsComfort  
Time TempWeatherWind HumidityBarometerVisibility
11:20 AM
Mon, May 25
61 °FBroken clouds.5 mph59%29.95 "HgN/A
10:50 AM61 °FBroken clouds.5 mph63%29.95 "HgN/A
10:20 AM61 °FBroken clouds.2 mph68%29.95 "HgN/A
9:50 AM61 °FBroken clouds.3 mph63%29.98 "HgN/A
9:20 AM59 °FBroken clouds.5 mph63%29.98 "HgN/A
8:50 AM59 °FPartly sunny.6 mph68%29.98 "HgN/A
8:20 AM57 °FBroken clouds.6 mph82%29.98 "HgN/A
7:50 AM55 °FBroken clouds.7 mph88%29.98 "HgN/A
7:20 AM55 °FLight rain. Broken clouds.6 mph82%29.98 "HgN/A
6:50 AM54 °FLight rain. Broken clouds.5 mph88%29.98 "HgN/A
6:20 AM54 °FLight rain. Broken clouds.6 mph88%29.98 "HgN/A
5:50 AM54 °FLight rain. Partly cloudy.7 mph88%29.98 "HgN/A
5:20 AM55 °FLight rain. Partly cloudy.6 mph82%29.98 "HgN/A
4:50 AM54 °FClear.6 mph88%29.98 "Hg10 mi
4:20 AM54 °FPassing clouds.6 mph82%29.98 "HgN/A
3:50 AM54 °FClear.3 mph82%29.98 "Hg10 mi
3:20 AM54 °FPartly cloudy.3 mph82%29.98 "HgN/A
2:50 AM54 °FClear.5 mph82%29.98 "Hg10 mi
2:20 AM54 °FPassing clouds.3 mph82%29.98 "HgN/A
1:50 AM55 °FPassing clouds.5 mph77%30.01 "HgN/A
1:20 AM55 °FPartly cloudy.5 mph82%30.01 "HgN/A
12:50 AM55 °FClear.3 mph82%30.01 "Hg10 mi
12:20 AM55 °FClear.3 mph82%30.01 "Hg10 mi
11:20 PM
Sun, May 24
57 °FClear.5 mph77%30.04 "Hg10 mi
10:50 PM59 °FClear.5 mph72%30.04 "Hg10 mi
10:20 PM59 °FClear.5 mph72%30.04 "Hg10 mi
9:50 PM59 °FPartly sunny.3 mph68%30.04 "HgN/A
9:20 PM61 °FPartly sunny.2 mph63%30.04 "HgN/A
8:50 PM63 °FPartly sunny.2 mph59%30.04 "HgN/A
8:20 PM63 °FScattered showers. Broken clouds.1 mph64%30.04 "HgN/A
7:50 PM63 °FSprinkles. Partly sunny.2 mph59%30.04 "HgN/A
7:20 PM63 °FPartly sunny.6 mph59%30.04 "HgN/A
6:50 PM64 °FScattered clouds.5 mph56%30.04 "HgN/A
6:20 PM66 °FScattered clouds.6 mph52%30.04 "HgN/A
5:50 PM64 °FPartly sunny.5 mph56%30.04 "HgN/A
5:20 PM64 °FScattered clouds.6 mph60%30.07 "HgN/A
4:50 PM66 °FScattered clouds.3 mph56%30.07 "HgN/A
4:20 PM66 °FPartly sunny.2 mph52%30.07 "HgN/A
3:50 PM64 °FPartly sunny.5 mph56%30.07 "HgN/A
3:20 PM64 °FPartly sunny.5 mph56%30.07 "HgN/A
2:50 PM64 °FPartly sunny.6 mph56%30.09 "HgN/A
2:20 PM64 °FPartly sunny.5 mph60%30.09 "HgN/A
1:50 PM63 °FScattered clouds.8 mph64%30.09 "HgN/A
1:20 PM63 °FPartly sunny.6 mph64%30.09 "HgN/A
12:50 PM61 °FPartly sunny.5 mph63%30.12 "HgN/A
12:20 PM61 °FPartly sunny.5 mph63%30.12 "HgN/A
Weather by CustomWeather, © 2015

See weather overviewHow to use our weather pages